Weather Roundup
Issued by NWS

Home | Current Version | Previous Version | Graphics & Text | Print | Product List | Glossary Off
Versions: 1 2 3 4 5 6 7 8 9 10 11 12 13 14 15 16 17 18 19 20 21 22 23 24 25 26 27 28 29 30 31 32 33 34 35 36 37 38 39 40 41 42 43 44 45 46 47 48 49 50

000
NZUS93 KARX 161859
HRRWXR

CURRENT HOURLY OBSERVATIONS ACROSS
MUCH OF THE UPPER MISSISSIPPI VALLEY
NATIONAL WEATHER SERVICE LA CROSSE WI
200 PM CDT TUE SEP 16 2014


...SOUTHEAST MINNESOTA...


CITY           SKY/WX    TMP DP  RH WIND       PRES   REMARKS
ROCHESTER      MOSUNNY   62  42  47 W10       30.16F
ROCHESTER/MAYO MOCLDY    64  37  36 SW9G16    30.14F
WINONA         SUNNY     64  41  42 S5        30.14F
AUSTIN         SUNNY     63  43  48 SW9G16    30.13F
ALBERT LEA     SUNNY     64  43  45 SW9       30.13F
DODGE CENTER   MOSUNNY   64  43  45 CALM      30.13F
PRESTON        SUNNY     62  49  62 SW8       30.15F
OWATONNA       SUNNY     64  43  45 SW9       30.13F
FARIBAULT      MOSUNNY   68  37  32 SW3       30.13F
$$

...ELSEWHERE IN MINNESOTA...


CITY           SKY/WX    TMP DP  RH WIND       PRES   REMARKS
MINNEAPOLIS    MOSUNNY   65  40  39 SW13      30.11F
INTNL FALLS    CLOUDY    57  46  66 W5        30.00S
DULUTH         MOSUNNY   68  41  37 W15       30.02F
RED WING       SUNNY     66  37  34 W7        30.11F
REDWOOD FALLS  SUNNY     66  43  43 S13       30.09F
MANKATO        SUNNY     64  41  42 S14       30.12F
WORTHINGTON    MOSUNNY   64  43  45 S9        30.11F
FAIRMONT       SUNNY     64  41  42 SW9       30.12F
$$

...SOUTHWEST WISCONSIN...


CITY           SKY/WX    TMP DP  RH WIND       PRES   REMARKS
LA CROSSE      SUNNY     65  42  43 VRB6      30.14F
PRAIRIE DU CHI SUNNY     64  40  41 SW3       30.16F
BOSCOBEL       SUNNY     66  43  43 MISG      30.16F
LONE ROCK      NOT AVBL
PLATTEVILLE    SUNNY     63  43  48 W10       30.18F
FORT MC COY    SUNNY     63  38  39 W7        30.16S
VIROQUA        FAIR      62  41  45 W8        30.16F
WIS DELLS      MOSUNNY   63  39  41 W6        30.15F
$$

...ELSEWHERE IN WISCONSIN...


CITY           SKY/WX    TMP DP  RH WIND       PRES   REMARKS
MILWAUKEE      MOSUNNY   63  38  39 NW8       30.15F
MADISON        MOSUNNY   62  40  44 W6        30.15F
GREEN BAY      SUNNY     64  43  46 W12       30.10F
EAU CLAIRE     SUNNY     65  42  43 SW6       30.11F
BLACK RVR FLS  FAIR      65  40  39 W9        30.13F
MEDFORD        SUNNY     61  41  48 SW8       30.12F
WAUSAU         SUNNY     64  41  42 W12       30.09F
WIS RAPIDS     SUNNY     64  41  42 W9        30.13F
MARSHFIELD     SUNNY     64  42  44 SW12      30.12F
RICE LAKE      SUNNY     65  40  40 S10G17    30.12F
$$

...NORTHEAST IOWA...


CITY           SKY/WX    TMP DP  RH WIND       PRES   REMARKS
WATERLOO       SUNNY     65  42  43 VRB7      30.15F
DUBUQUE        SUNNY     62  44  51 VRB7      30.16F
DECORAH        SUNNY     63  43  48 W6G12     30.15F
MASON CITY     SUNNY     64  44  48 SW8       30.15F
CHARLES CITY   SUNNY     64  41  42 SW8       30.16F
OELWEIN        SUNNY     63  43  48 VRB6      30.17F
$$

...ELSEWHERE IN IOWA...


CITY           SKY/WX    TMP DP  RH WIND       PRES   REMARKS
DES MOINES     MOSUNNY   65  45  48 SW5       30.16F
IOWA CITY      SUNNY     63  45  51 MISG      30.18F
FORT DODGE     SUNNY     64  46  52 SW6       30.15F
MARSHALLTOWN   SUNNY     64  44  48 S7        30.16F
CEDAR RAPIDS   SUNNY     63  46  54 S7        30.16F
$$

...NORTHERN ILLINOIS...


CITY           SKY/WX    TMP DP  RH WIND       PRES   REMARKS
CHICAGO-OHARE  MOSUNNY   64  39  39 W10       30.14F
DUPAGE         SUNNY     66  41  40 SW6       30.15F
CHICAGO-MIDWAY MOSUNNY   67  43  41 CALM      30.15F
MOLINE         SUNNY     66  43  43 W6        30.17F
ROCKFORD       MOSUNNY   65  40  39 NW7       30.18F
STERLING       SUNNY     66  45  45 NW7       30.17F
PEORIA         SUNNY     67  45  45 CALM      30.18F
$$

NOTE: "FAIR" INDICATES FEW OR NO CLOUDS BELOW 12,000 FEET WITH NO
SIGNIFICANT WEATHER AND/OR OBSTRUCTIONS TO VISIBILITY. WIND
SPEEDS ARE IN MILES-PER-HOUR.



USA.gov is the U.S. government's official web portal to all federal, state and local government web resources and services.